Time,TemperatureF,DewpointF,PressureIn,WindDirection,WindDirectionDegrees,WindSpeedMPH,WindSpeedGustMPH,Humidity,HourlyPrecipIn,Conditions,Clouds,dailyrainin,SoftwareType,DateUTC
2013-08-17 00:04:00,68.9,61.0,28.97,NE,45,0.0,0.0,76,0.00,,---,0.00,VWS V14.00,2013-08-17 04:04:00,
2013-08-17 00:10:00,68.9,61.0,28.97,NE,45,0.0,0.0,76,0.00,,---,0.00,VWS V14.00,2013-08-17 04:10:00,
2013-08-17 00:13:00,68.7,60.9,28.97,NE,45,0.0,0.0,76,0.00,,---,0.00,VWS V14.00,2013-08-17 04:13:00,
2013-08-17 00:19:00,68.7,60.9,28.97,NE,45,0.0,0.0,76,0.00,,---,0.00,VWS V14.00,2013-08-17 04:19:00,
2013-08-17 00:25:00,68.7,60.9,28.97,NE,45,0.0,0.0,76,0.00,,---,0.00,VWS V14.00,2013-08-17 04:25:00,
2013-08-17 00:31:00,68.7,60.9,28.97,NE,45,0.0,0.0,76,0.00,,---,0.00,VWS V14.00,2013-08-17 04:31:00,
2013-08-17 00:37:00,68.7,60.9,28.97,NE,45,0.0,0.0,76,0.00,,---,0.00,VWS V14.00,2013-08-17 04:37:00,
2013-08-17 00:43:00,68.7,60.9,28.97,NE,45,0.0,0.0,76,0.00,,---,0.00,VWS V14.00,2013-08-17 04:43:00,
2013-08-17 00:49:00,68.7,60.9,28.97,NE,45,0.0,0.0,76,0.00,,---,0.00,VWS V14.00,2013-08-17 04:49:00,
2013-08-17 00:55:00,68.7,60.9,28.97,NE,45,0.0,0.0,76,0.00,,---,0.00,VWS V14.00,2013-08-17 04:55:00,
2013-08-17 01:02:00,68.5,60.3,28.97,SSW,202,1.1,1.1,75,0.00,,---,0.00,VWS V14.00,2013-08-17 05:02:00,
2013-08-17 01:08:00,68.7,60.5,28.97,SE,135,0.0,1.1,75,0.00,,---,0.00,VWS V14.00,2013-08-17 05:08:00,
2013-08-17 01:14:00,68.5,60.3,28.97,NNE,22,0.0,1.1,75,0.00,,---,0.00,VWS V14.00,2013-08-17 05:14:00,
2013-08-17 01:20:00,68.5,60.3,28.97,NE,45,0.0,1.1,75,0.00,,---,0.00,VWS V14.00,2013-08-17 05:20:00,
2013-08-17 01:26:00,68.5,60.3,28.97,NE,45,0.0,1.1,75,0.00,,---,0.00,VWS V14.00,2013-08-17 05:26:00,
2013-08-17 01:32:00,68.5,60.3,28.97,NE,45,0.0,1.1,75,0.00,,---,0.00,VWS V14.00,2013-08-17 05:32:00,
2013-08-17 01:38:00,68.4,60.1,28.97,NE,45,0.0,1.1,75,0.00,,---,0.00,VWS V14.00,2013-08-17 05:38:00,
2013-08-17 01:44:00,68.4,60.1,28.97,NE,45,0.0,1.1,75,0.00,,---,0.00,VWS V14.00,2013-08-17 05:44:00,
2013-08-17 01:50:00,68.4,60.1,28.97,NE,45,0.0,1.1,75,0.00,,---,0.00,VWS V14.00,2013-08-17 05:50:00,
2013-08-17 01:56:00,68.4,60.1,28.97,NE,45,0.0,1.1,75,0.00,,---,0.00,VWS V14.00,2013-08-17 05:56:00,
2013-08-17 02:02:00,68.4,60.1,28.97,NE,45,0.0,0.0,75,0.00,,---,0.00,VWS V14.00,2013-08-17 06:02:00,
2013-08-17 02:08:00,68.4,60.1,28.97,NE,45,0.0,0.0,75,0.00,,---,0.00,VWS V14.00,2013-08-17 06:08:00,
2013-08-17 02:14:00,68.4,60.1,28.97,NE,45,0.0,0.0,75,0.00,,---,0.00,VWS V14.00,2013-08-17 06:14:00,
2013-08-17 02:20:00,68.4,60.1,28.97,NE,45,0.0,0.0,75,0.00,,---,0.00,VWS V14.00,2013-08-17 06:20:00,
2013-08-17 02:26:00,68.2,60.0,28.97,NE,45,0.0,0.0,75,0.00,,---,0.00,VWS V14.00,2013-08-17 06:26:00,
2013-08-17 02:32:00,68.2,60.0,28.97,NE,45,0.0,0.0,75,0.00,,---,0.00,VWS V14.00,2013-08-17 06:32:00,
2013-08-17 02:38:00,68.2,60.0,28.97,NE,45,0.0,0.0,75,0.00,,---,0.00,VWS V14.00,2013-08-17 06:38:00,
2013-08-17 02:44:00,68.2,60.3,28.97,NE,45,0.0,0.0,76,0.00,,---,0.00,VWS V14.00,2013-08-17 06:44:00,
2013-08-17 02:50:00,68.2,60.3,28.97,NE,45,0.0,0.0,76,0.00,,---,0.00,VWS V14.00,2013-08-17 06:50:00,
2013-08-17 02:56:00,68.2,60.3,28.97,NE,45,0.0,0.0,76,0.00,,---,0.00,VWS V14.00,2013-08-17 06:56:00,
2013-08-17 03:02:00,68.2,60.7,28.97,NE,45,0.0,0.0,77,0.00,,---,0.00,VWS V14.00,2013-08-17 07:02:00,
2013-08-17 03:08:00,68.0,60.5,28.97,NE,45,0.0,0.0,77,0.00,,---,0.00,VWS V14.00,2013-08-17 07:08:00,
2013-08-17 03:14:00,68.0,60.5,28.97,NE,45,0.0,0.0,77,0.00,,---,0.00,VWS V14.00,2013-08-17 07:14:00,
2013-08-17 03:20:00,68.0,60.5,28.97,NE,45,0.0,0.0,77,0.00,,---,0.00,VWS V14.00,2013-08-17 07:20:00,
2013-08-17 03:26:00,68.0,60.5,28.97,NNE,22,0.0,0.0,77,0.00,,---,0.00,VWS V14.00,2013-08-17 07:26:00,
2013-08-17 03:32:00,67.8,60.7,28.97,NNE,22,0.0,0.0,78,0.00,,---,0.00,VWS V14.00,2013-08-17 07:32:00,
2013-08-17 03:38:00,67.8,60.7,28.97,NNE,22,0.0,0.0,78,0.00,,---,0.00,VWS V14.00,2013-08-17 07:38:00,
2013-08-17 03:44:00,67.8,60.7,28.97,ENE,68,0.0,1.3,78,0.00,,---,0.00,VWS V14.00,2013-08-17 07:44:00,
2013-08-17 03:50:00,67.6,60.5,28.97,NNE,22,0.0,1.3,78,0.00,,---,0.00,VWS V14.00,2013-08-17 07:50:00,
2013-08-17 03:56:00,67.6,60.5,28.97,ENE,68,1.1,2.0,78,0.00,,---,0.00,VWS V14.00,2013-08-17 07:56:00,
2013-08-17 04:02:00,67.6,60.5,28.97,NE,45,0.0,1.3,78,0.00,,---,0.00,VWS V14.00,2013-08-17 08:02:00,
2013-08-17 04:08:00,67.5,60.4,28.97,NW,315,0.0,1.6,78,0.00,,---,0.00,VWS V14.00,2013-08-17 08:08:00,
2013-08-17 04:14:00,67.5,60.4,28.97,WSW,248,2.0,2.0,78,0.00,,---,0.00,VWS V14.00,2013-08-17 08:14:00,
2013-08-17 04:20:00,67.5,60.4,28.97,ENE,68,0.0,2.0,78,0.00,,---,0.00,VWS V14.00,2013-08-17 08:20:00,
2013-08-17 04:26:00,67.5,60.0,28.97,ENE,68,1.6,2.0,77,0.00,,---,0.00,VWS V14.00,2013-08-17 08:26:00,
2013-08-17 04:32:00,67.3,59.8,28.97,North,0,0.0,2.0,77,0.00,,---,0.00,VWS V14.00,2013-08-17 08:32:00,
2013-08-17 04:38:00,67.3,59.8,28.97,ENE,68,0.0,2.0,77,0.00,,---,0.00,VWS V14.00,2013-08-17 08:38:00,
2013-08-17 04:44:00,67.3,59.8,28.97,ENE,68,0.0,2.0,77,0.00,,---,0.00,VWS V14.00,2013-08-17 08:44:00,
2013-08-17 04:50:00,67.3,59.5,28.97,East,90,0.0,2.0,76,0.00,,---,0.00,VWS V14.00,2013-08-17 08:50:00,
2013-08-17 04:56:00,67.3,59.8,28.97,NE,45,0.0,2.0,77,0.00,,---,0.00,VWS V14.00,2013-08-17 08:56:00,
2013-08-17 05:02:00,67.3,59.8,28.97,ENE,68,0.0,0.0,77,0.00,,---,0.00,VWS V14.00,2013-08-17 09:02:00,
2013-08-17 05:08:00,67.3,59.8,28.97,NNE,22,0.0,0.0,77,0.00,,---,0.00,VWS V14.00,2013-08-17 09:08:00,
2013-08-17 05:14:00,67.3,59.8,28.97,NNE,22,0.0,0.0,77,0.00,,---,0.00,VWS V14.00,2013-08-17 09:14:00,
2013-08-17 05:20:00,67.3,60.2,28.97,ENE,68,0.0,0.0,78,0.00,,---,0.00,VWS V14.00,2013-08-17 09:20:00,
2013-08-17 05:26:00,67.3,60.2,28.97,ENE,68,0.0,0.9,78,0.00,,---,0.00,VWS V14.00,2013-08-17 09:26:00,
2013-08-17 05:32:00,67.3,60.2,28.97,ENE,68,0.0,0.9,78,0.00,,---,0.00,VWS V14.00,2013-08-17 09:32:00,
2013-08-17 05:38:00,67.3,60.2,28.97,ENE,68,0.0,0.9,78,0.00,,---,0.00,VWS V14.00,2013-08-17 09:38:00,
2013-08-17 05:44:00,67.3,60.2,28.97,ENE,68,0.0,0.9,78,0.00,,---,0.00,VWS V14.00,2013-08-17 09:44:00,
2013-08-17 05:50:00,67.3,60.2,28.97,ENE,68,0.0,0.9,78,0.00,,---,0.00,VWS V14.00,2013-08-17 09:50:00,
2013-08-17 05:56:00,67.3,60.2,28.97,ENE,68,0.0,0.9,78,0.00,,---,0.00,VWS V14.00,2013-08-17 09:56:00,
2013-08-17 06:02:00,67.3,60.2,28.97,ENE,68,0.0,0.0,78,0.00,,---,0.00,VWS V14.00,2013-08-17 10:02:00,
2013-08-17 06:08:00,67.3,60.2,28.97,ENE,68,0.0,0.0,78,0.00,,---,0.00,VWS V14.00,2013-08-17 10:08:00,
2013-08-17 06:14:00,67.3,60.2,28.97,ENE,68,0.0,0.0,78,0.00,,---,0.00,VWS V14.00,2013-08-17 10:14:00,
2013-08-17 06:20:00,67.1,60.0,28.97,ENE,68,0.0,0.0,78,0.00,,---,0.00,VWS V14.00,2013-08-17 10:20:00,
2013-08-17 06:26:00,67.3,60.2,28.97,ENE,68,0.0,0.0,78,0.00,,---,0.00,VWS V14.00,2013-08-17 10:26:00,
2013-08-17 06:32:00,67.3,60.2,28.97,WNW,292,0.0,0.0,78,0.00,,---,0.00,VWS V14.00,2013-08-17 10:32:00,
2013-08-17 06:38:00,67.3,60.2,28.97,WNW,292,0.0,0.0,78,0.00,,---,0.00,VWS V14.00,2013-08-17 10:38:00,
2013-08-17 06:44:00,67.1,60.0,28.97,WNW,292,0.0,0.0,78,0.00,,---,0.00,VWS V14.00,2013-08-17 10:44:00,
2013-08-17 06:51:00,67.1,60.0,28.97,WNW,292,0.0,0.0,78,0.00,,---,0.00,VWS V14.00,2013-08-17 10:51:00,
2013-08-17 06:57:00,67.1,60.0,28.97,WNW,292,0.0,0.0,78,0.00,,---,0.00,VWS V14.00,2013-08-17 10:57:00,
2013-08-17 07:03:00,67.3,60.2,28.97,East,90,0.9,0.9,78,0.00,,---,0.00,VWS V14.00,2013-08-17 11:03:00,
2013-08-17 07:09:00,67.3,60.2,28.97,East,90,0.0,0.9,78,0.00,,---,0.00,VWS V14.00,2013-08-17 11:09:00,
2013-08-17 07:15:00,67.3,60.2,28.97,ENE,68,0.0,0.9,78,0.00,,---,0.00,VWS V14.00,2013-08-17 11:15:00,
2013-08-17 07:21:00,67.3,60.2,28.97,NNE,22,0.0,0.9,78,0.00,,---,0.00,VWS V14.00,2013-08-17 11:21:00,
2013-08-17 07:27:00,67.3,60.2,28.97,NNE,22,0.0,0.9,78,0.00,,---,0.00,VWS V14.00,2013-08-17 11:27:00,
2013-08-17 07:33:00,67.3,60.2,28.97,NNE,22,0.0,0.9,78,0.00,,---,0.00,VWS V14.00,2013-08-17 11:33:00,
2013-08-17 07:39:00,67.3,60.2,28.97,NNE,22,0.0,0.9,78,0.00,,---,0.00,VWS V14.00,2013-08-17 11:39:00,
2013-08-17 07:45:00,67.3,60.2,28.97,NNE,22,0.0,0.9,78,0.00,,---,0.00,VWS V14.00,2013-08-17 11:45:00,
2013-08-17 07:51:00,67.3,60.2,28.97,NNE,22,0.0,0.9,78,0.00,,---,0.00,VWS V14.00,2013-08-17 11:51:00,
2013-08-17 07:57:00,67.5,60.4,28.97,ENE,68,0.0,0.9,78,0.00,,---,0.00,VWS V14.00,2013-08-17 11:57:00,
2013-08-17 08:03:00,67.5,60.4,28.97,ENE,68,0.0,0.0,78,0.00,,---,0.00,VWS V14.00,2013-08-17 12:03:00,
2013-08-17 08:09:00,67.5,60.4,28.97,ENE,68,0.0,0.0,78,0.00,,---,0.00,VWS V14.00,2013-08-17 12:09:00,
2013-08-17 08:15:00,67.5,60.4,28.97,ENE,68,0.0,0.0,78,0.00,,---,0.00,VWS V14.00,2013-08-17 12:15:00,
2013-08-17 08:21:00,67.5,60.4,28.97,ENE,68,0.0,0.0,78,0.00,,---,0.00,VWS V14.00,2013-08-17 12:21:00,
2013-08-17 08:27:00,67.6,60.5,28.97,ENE,68,0.0,0.0,78,0.00,,---,0.00,VWS V14.00,2013-08-17 12:27:00,
2013-08-17 08:33:00,67.6,60.5,28.97,ENE,68,0.0,0.0,78,0.00,,---,0.00,VWS V14.00,2013-08-17 12:33:00,
2013-08-17 08:39:00,67.6,60.5,28.97,ENE,68,0.0,0.0,78,0.00,,---,0.00,VWS V14.00,2013-08-17 12:39:00,
2013-08-17 08:45:00,67.8,60.7,28.97,ENE,68,0.0,0.0,78,0.00,,---,0.00,VWS V14.00,2013-08-17 12:45:00,
2013-08-17 08:51:00,67.8,60.7,28.97,NW,315,0.0,0.0,78,0.00,,---,0.00,VWS V14.00,2013-08-17 12:51:00,
2013-08-17 08:57:00,67.8,60.3,28.97,North,0,0.0,0.0,77,0.00,,---,0.00,VWS V14.00,2013-08-17 12:57:00,
2013-08-17 09:03:00,68.0,60.5,29.00,North,0,0.0,0.0,77,0.00,,---,0.00,VWS V14.00,2013-08-17 13:03:00,
2013-08-17 09:09:00,68.0,60.5,29.00,NW,315,0.0,0.0,77,0.00,,---,0.00,VWS V14.00,2013-08-17 13:09:00,
2013-08-17 09:15:00,68.0,60.5,29.00,NW,315,0.0,0.0,77,0.00,,---,0.00,VWS V14.00,2013-08-17 13:15:00,
2013-08-17 09:21:00,68.2,60.7,29.00,NW,315,0.0,0.0,77,0.00,,---,0.00,VWS V14.00,2013-08-17 13:21:00,
2013-08-17 09:27:00,68.2,60.7,29.00,ENE,68,0.0,0.0,77,0.00,,---,0.00,VWS V14.00,2013-08-17 13:27:00,
2013-08-17 09:33:00,68.2,60.3,29.00,ENE,68,0.0,0.0,76,0.00,,---,0.00,VWS V14.00,2013-08-17 13:33:00,
2013-08-17 09:39:00,68.4,60.5,29.00,East,90,1.6,1.6,76,0.00,,---,0.00,VWS V14.00,2013-08-17 13:39:00,
2013-08-17 09:45:00,68.4,60.1,29.00,NE,45,0.0,1.6,75,0.00,,---,0.00,VWS V14.00,2013-08-17 13:45:00,
2013-08-17 09:51:00,68.5,60.3,29.00,NE,45,0.0,1.6,75,0.00,,---,0.00,VWS V14.00,2013-08-17 13:51:00,
2013-08-17 09:57:00,68.5,60.3,29.00,NE,45,0.0,1.6,75,0.00,,---,0.00,VWS V14.00,2013-08-17 13:57:00,
2013-08-17 10:03:00,68.7,60.5,29.00,NNE,22,0.0,0.0,75,0.00,,---,0.00,VWS V14.00,2013-08-17 14:03:00,
2013-08-17 10:09:00,68.7,60.5,29.00,ESE,112,1.1,1.3,75,0.00,,---,0.00,VWS V14.00,2013-08-17 14:09:00,
2013-08-17 10:15:00,68.7,60.5,29.00,NE,45,0.0,1.3,75,0.00,,---,0.00,VWS V14.00,2013-08-17 14:15:00,
2013-08-17 10:21:00,68.9,60.7,29.00,NE,45,0.9,2.0,75,0.00,,---,0.00,VWS V14.00,2013-08-17 14:21:00,
2013-08-17 10:27:00,69.1,60.5,29.00,ENE,68,0.0,2.0,74,0.00,,---,0.00,VWS V14.00,2013-08-17 14:27:00,
2013-08-17 10:33:00,69.3,60.2,29.00,East,90,0.0,2.0,73,0.00,,---,0.00,VWS V14.00,2013-08-17 14:33:00,
2013-08-17 10:39:00,69.3,60.2,29.00,NE,45,0.0,2.0,73,0.00,,---,0.00,VWS V14.00,2013-08-17 14:39:00,
2013-08-17 10:45:00,69.4,60.8,29.00,NNE,22,0.0,2.0,74,0.00,,---,0.00,VWS V14.00,2013-08-17 14:45:00,
2013-08-17 10:51:00,69.4,60.8,29.00,ENE,68,0.0,2.0,74,0.00,,---,0.00,VWS V14.00,2013-08-17 14:51:00,
2013-08-17 10:57:00,69.4,60.4,29.00,NE,45,0.0,2.0,73,0.00,,---,0.00,VWS V14.00,2013-08-17 14:57:00,
2013-08-17 11:03:00,69.6,60.6,29.00,North,0,0.0,0.0,73,0.00,,---,0.00,VWS V14.00,2013-08-17 15:03:00,
2013-08-17 11:09:00,69.6,60.6,29.00,North,0,0.0,0.0,73,0.00,,---,0.00,VWS V14.00,2013-08-17 15:09:00,
2013-08-17 11:15:00,69.6,60.6,29.00,North,0,0.0,0.0,73,0.00,,---,0.00,VWS V14.00,2013-08-17 15:15:00,
2013-08-17 11:21:00,69.6,60.6,29.00,North,0,0.0,0.0,73,0.00,,---,0.00,VWS V14.00,2013-08-17 15:21:00,
2013-08-17 11:27:00,69.6,60.6,29.00,NE,45,0.0,0.0,73,0.00,,---,0.00,VWS V14.00,2013-08-17 15:27:00,
2013-08-17 11:33:00,69.6,60.6,29.00,NE,45,0.0,0.0,73,0.00,,---,0.00,VWS V14.00,2013-08-17 15:33:00,
2013-08-17 11:39:00,69.6,60.6,29.00,ENE,68,0.0,0.0,73,0.00,,---,0.00,VWS V14.00,2013-08-17 15:39:00,
2013-08-17 11:45:00,69.6,60.6,29.00,ENE,68,0.0,0.0,73,0.00,,---,0.00,VWS V14.00,2013-08-17 15:45:00,
2013-08-17 11:51:00,69.6,60.6,29.00,ENE,68,0.0,0.0,73,0.00,,---,0.00,VWS V14.00,2013-08-17 15:51:00,
2013-08-17 11:58:00,69.8,60.8,29.00,NE,45,0.0,0.0,73,0.00,,---,0.00,VWS V14.00,2013-08-17 15:58:00,
2013-08-17 12:04:00,69.8,60.8,29.00,ENE,68,0.0,0.0,73,0.00,,---,0.00,VWS V14.00,2013-08-17 16:04:00,
2013-08-17 12:10:00,70.0,60.5,29.00,SE,135,2.5,2.5,72,0.00,,---,0.00,VWS V14.00,2013-08-17 16:10:00,
2013-08-17 12:16:00,70.0,60.5,29.00,ENE,68,0.0,2.5,72,0.00,,---,0.00,VWS V14.00,2013-08-17 16:16:00,
2013-08-17 12:22:00,70.0,60.2,29.00,East,90,0.0,2.5,71,0.00,,---,0.00,VWS V14.00,2013-08-17 16:22:00,
2013-08-17 12:28:00,70.0,60.5,29.00,NE,45,0.0,2.5,72,0.00,,---,0.00,VWS V14.00,2013-08-17 16:28:00,
2013-08-17 12:34:00,70.0,60.5,29.00,NW,315,0.0,2.5,72,0.00,,---,0.00,VWS V14.00,2013-08-17 16:34:00,
2013-08-17 12:40:00,70.2,60.7,29.00,NE,45,0.0,2.5,72,0.00,,---,0.00,VWS V14.00,2013-08-17 16:40:00,
2013-08-17 12:46:00,70.2,60.7,29.00,NNW,338,0.0,2.5,72,0.00,,---,0.00,VWS V14.00,2013-08-17 16:46:00,
2013-08-17 12:52:00,70.3,60.9,29.00,NNW,338,0.0,2.5,72,0.00,,---,0.00,VWS V14.00,2013-08-17 16:52:00,
2013-08-17 12:58:00,70.3,60.9,29.00,NNE,22,0.0,2.5,72,0.00,,---,0.00,VWS V14.00,2013-08-17 16:58:00,
2013-08-17 13:04:00,70.5,61.1,29.00,NE,45,0.0,0.0,72,0.00,,---,0.00,VWS V14.00,2013-08-17 17:04:00,
2013-08-17 13:10:00,70.5,61.1,29.00,ESE,112,0.0,0.0,72,0.00,,---,0.00,VWS V14.00,2013-08-17 17:10:00,
2013-08-17 13:16:00,70.5,61.1,29.00,ENE,68,2.5,2.5,72,0.00,,---,0.00,VWS V14.00,2013-08-17 17:16:00,
2013-08-17 13:22:00,70.5,61.1,29.00,ENE,68,0.9,2.5,72,0.00,,---,0.00,VWS V14.00,2013-08-17 17:22:00,
2013-08-17 13:28:00,70.7,61.6,29.00,East,90,1.3,2.5,73,0.00,,---,0.00,VWS V14.00,2013-08-17 17:28:00,
2013-08-17 13:34:00,70.5,61.5,29.00,ENE,68,0.0,2.5,73,0.00,,---,0.00,VWS V14.00,2013-08-17 17:34:00,
2013-08-17 13:40:00,70.3,61.7,29.00,NE,45,0.0,2.5,74,0.00,,---,0.00,VWS V14.00,2013-08-17 17:40:00,
2013-08-17 13:46:00,70.3,62.0,29.00,NNE,22,0.0,2.5,75,0.00,,---,0.00,VWS V14.00,2013-08-17 17:46:00,
2013-08-17 13:52:00,70.3,62.4,29.00,ENE,68,0.0,2.5,76,0.00,,---,0.00,VWS V14.00,2013-08-17 17:52:00,
2013-08-17 13:58:00,70.2,62.6,29.00,ENE,68,0.0,2.5,77,0.00,,---,0.00,VWS V14.00,2013-08-17 17:58:00,
2013-08-17 14:04:00,70.2,62.6,29.00,ENE,68,0.9,1.3,77,0.00,,---,0.00,VWS V14.00,2013-08-17 18:04:00,
2013-08-17 14:10:00,70.2,62.6,29.00,NE,45,0.0,1.3,77,0.00,,---,0.00,VWS V14.00,2013-08-17 18:10:00,
2013-08-17 14:16:00,70.2,62.6,29.00,ENE,68,1.3,1.6,77,0.00,,---,0.00,VWS V14.00,2013-08-17 18:16:00,
2013-08-17 14:22:00,70.0,62.5,28.97,ENE,68,0.0,1.6,77,0.00,,---,0.00,VWS V14.00,2013-08-17 18:22:00,
2013-08-17 14:28:00,70.0,62.8,28.97,East,90,0.0,1.6,78,0.00,,---,0.00,VWS V14.00,2013-08-17 18:28:00,
2013-08-17 14:34:00,69.8,62.6,28.97,East,90,0.0,1.6,78,0.00,,---,0.00,VWS V14.00,2013-08-17 18:34:00,
2013-08-17 14:40:00,69.8,62.6,28.97,NE,45,0.0,1.6,78,0.00,,---,0.00,VWS V14.00,2013-08-17 18:40:00,
2013-08-17 14:46:00,69.6,62.8,28.97,East,90,0.0,1.6,79,0.00,,---,0.00,VWS V14.00,2013-08-17 18:46:00,
2013-08-17 14:52:00,69.4,62.7,28.97,NE,45,0.0,1.6,79,0.00,,---,0.00,VWS V14.00,2013-08-17 18:52:00,
2013-08-17 14:58:00,69.4,62.7,28.97,NE,45,0.0,1.6,79,0.00,,---,0.00,VWS V14.00,2013-08-17 18:58:00,
2013-08-17 15:04:00,69.4,63.0,28.97,NNE,22,0.0,0.0,80,0.00,,---,0.00,VWS V14.00,2013-08-17 19:04:00,
2013-08-17 15:10:00,69.4,63.0,28.97,NE,45,0.0,0.0,80,0.00,,---,0.00,VWS V14.00,2013-08-17 19:10:00,
2013-08-17 15:16:00,69.4,63.0,28.97,NE,45,0.0,0.0,80,0.00,,---,0.00,VWS V14.00,2013-08-17 19:16:00,
2013-08-17 15:22:00,69.4,63.0,28.97,NE,45,0.0,0.0,80,0.00,,---,0.00,VWS V14.00,2013-08-17 19:22:00,
2013-08-17 15:28:00,69.4,63.0,28.97,NE,45,0.0,0.0,80,0.00,,---,0.00,VWS V14.00,2013-08-17 19:28:00,
2013-08-17 15:34:00,69.4,63.0,28.97,WNW,292,0.0,0.0,80,0.00,,---,0.00,VWS V14.00,2013-08-17 19:34:00,
2013-08-17 15:40:00,69.4,63.4,28.97,NNE,22,0.0,0.0,81,0.00,,---,0.00,VWS V14.00,2013-08-17 19:40:00,
2013-08-17 15:46:00,69.6,63.5,28.97,North,0,0.0,0.0,81,0.00,,---,0.00,VWS V14.00,2013-08-17 19:46:00,
2013-08-17 15:52:00,69.6,63.5,28.97,North,0,0.0,0.0,81,0.00,,---,0.00,VWS V14.00,2013-08-17 19:52:00,
2013-08-17 15:58:00,69.6,63.5,28.97,North,0,0.0,0.0,81,0.00,,---,0.00,VWS V14.00,2013-08-17 19:58:00,
2013-08-17 16:04:00,69.4,63.4,28.97,NE,45,0.0,0.0,81,0.00,,---,0.00,VWS V14.00,2013-08-17 20:04:00,
2013-08-17 16:10:00,69.4,63.4,28.97,NE,45,0.0,0.0,81,0.00,,---,0.00,VWS V14.00,2013-08-17 20:10:00,
2013-08-17 16:16:00,69.4,63.4,28.97,NE,45,0.0,0.0,81,0.00,,---,0.00,VWS V14.00,2013-08-17 20:16:00,
2013-08-17 16:22:00,69.4,63.4,28.97,ENE,68,0.0,0.0,81,0.00,,---,0.00,VWS V14.00,2013-08-17 20:22:00,
2013-08-17 16:28:00,69.4,63.7,28.97,NE,45,0.0,0.0,82,0.00,,---,0.00,VWS V14.00,2013-08-17 20:28:00,
2013-08-17 16:34:00,69.4,63.7,28.97,ENE,68,0.0,0.0,82,0.00,,---,0.00,VWS V14.00,2013-08-17 20:34:00,
2013-08-17 16:40:00,69.4,63.7,28.97,NE,45,0.0,0.0,82,0.00,,---,0.00,VWS V14.00,2013-08-17 20:40:00,
2013-08-17 16:46:00,69.4,63.7,28.97,NE,45,0.0,0.0,82,0.00,,---,0.00,VWS V14.00,2013-08-17 20:46:00,
2013-08-17 16:52:00,69.4,63.7,28.97,NNE,22,0.0,0.0,82,0.00,,---,0.00,VWS V14.00,2013-08-17 20:52:00,
2013-08-17 16:58:00,69.4,63.7,28.97,NE,45,0.0,0.0,82,0.00,,---,0.00,VWS V14.00,2013-08-17 20:58:00,
2013-08-17 17:04:00,69.4,63.7,28.97,NE,45,0.0,0.0,82,0.00,,---,0.00,VWS V14.00,2013-08-17 21:04:00,
2013-08-17 17:10:00,69.4,63.7,28.97,NE,45,0.0,0.0,82,0.00,,---,0.00,VWS V14.00,2013-08-17 21:10:00,
2013-08-17 17:17:00,69.4,64.1,28.97,ENE,68,0.0,0.0,83,0.00,,---,0.00,VWS V14.00,2013-08-17 21:17:00,
2013-08-17 17:23:00,69.4,63.7,28.97,North,0,0.0,0.0,82,0.00,,---,0.00,VWS V14.00,2013-08-17 21:23:00,
2013-08-17 17:29:00,69.4,64.1,28.97,NE,45,0.0,0.0,83,0.00,,---,0.00,VWS V14.00,2013-08-17 21:29:00,
2013-08-17 17:35:00,69.4,64.1,28.97,NE,45,0.0,0.0,83,0.04,,---,0.04,VWS V14.00,2013-08-17 21:35:00,
2013-08-17 17:41:00,69.4,64.1,28.97,NE,45,0.0,0.0,83,0.04,,---,0.04,VWS V14.00,2013-08-17 21:41:00,
2013-08-17 17:47:00,69.3,63.9,28.97,NE,45,0.0,0.0,83,0.04,,---,0.04,VWS V14.00,2013-08-17 21:47:00,
2013-08-17 17:53:00,69.1,63.4,28.97,ENE,68,0.0,0.0,82,0.04,,---,0.04,VWS V14.00,2013-08-17 21:53:00,
2013-08-17 17:59:00,69.1,63.7,28.97,ENE,68,0.0,0.0,83,0.04,,---,0.04,VWS V14.00,2013-08-17 21:59:00,
2013-08-17 18:05:00,69.1,63.7,28.97,East,90,0.0,0.0,83,0.04,,---,0.04,VWS V14.00,2013-08-17 22:05:00,
2013-08-17 18:11:00,69.1,63.7,28.97,ENE,68,0.0,0.0,83,0.04,,---,0.04,VWS V14.00,2013-08-17 22:11:00,
2013-08-17 18:17:00,69.1,63.7,28.97,NW,315,0.0,0.0,83,0.04,,---,0.04,VWS V14.00,2013-08-17 22:17:00,
2013-08-17 18:23:00,68.9,63.5,28.97,ENE,68,0.0,0.0,83,0.04,,---,0.04,VWS V14.00,2013-08-17 22:23:00,
2013-08-17 18:29:00,68.9,63.5,28.97,NNW,338,0.0,0.0,83,0.09,,---,0.09,VWS V14.00,2013-08-17 22:29:00,
2013-08-17 18:35:00,68.9,63.9,28.97,ENE,68,0.0,0.0,84,0.09,,---,0.09,VWS V14.00,2013-08-17 22:35:00,
2013-08-17 18:41:00,68.9,63.9,28.97,East,90,0.0,0.0,84,0.09,,---,0.09,VWS V14.00,2013-08-17 22:41:00,
2013-08-17 18:47:00,68.9,63.9,28.97,East,90,0.0,0.0,84,0.09,,---,0.09,VWS V14.00,2013-08-17 22:47:00,
2013-08-17 18:53:00,68.7,63.7,28.97,East,90,0.0,0.0,84,0.09,,---,0.09,VWS V14.00,2013-08-17 22:53:00,
2013-08-17 18:59:00,68.7,63.7,28.97,East,90,0.0,0.0,84,0.09,,---,0.09,VWS V14.00,2013-08-17 22:59:00,
2013-08-17 19:05:00,68.7,63.7,28.97,WNW,292,0.0,0.0,84,0.05,,---,0.09,VWS V14.00,2013-08-17 23:05:00,
2013-08-17 19:11:00,68.7,63.7,28.97,WNW,292,0.0,0.0,84,0.05,,---,0.09,VWS V14.00,2013-08-17 23:11:00,
2013-08-17 19:17:00,68.5,63.5,28.97,WNW,292,0.0,0.0,84,0.05,,---,0.09,VWS V14.00,2013-08-17 23:17:00,
2013-08-17 19:23:00,68.5,63.5,28.97,WNW,292,0.0,1.3,84,0.05,,---,0.09,VWS V14.00,2013-08-17 23:23:00,
2013-08-17 19:29:00,68.5,63.9,28.97,West,270,0.0,1.3,85,0.05,,---,0.09,VWS V14.00,2013-08-17 23:29:00,
2013-08-17 19:35:00,68.5,63.9,28.97,West,270,0.0,1.3,85,0.05,,---,0.09,VWS V14.00,2013-08-17 23:35:00,
2013-08-17 19:41:00,68.5,63.9,28.97,West,270,0.0,1.3,85,0.05,,---,0.09,VWS V14.00,2013-08-17 23:41:00,
2013-08-17 19:47:00,68.5,63.9,28.97,West,270,0.0,1.3,85,0.05,,---,0.09,VWS V14.00,2013-08-17 23:47:00,
2013-08-17 19:53:00,68.5,63.9,28.97,WNW,292,0.0,1.3,85,0.05,,---,0.09,VWS V14.00,2013-08-17 23:53:00,
2013-08-17 19:59:00,68.4,63.7,28.97,WNW,292,0.0,1.3,85,0.05,,---,0.09,VWS V14.00,2013-08-17 23:59:00,
2013-08-17 20:05:00,68.4,63.7,28.97,SE,135,0.0,0.0,85,0.00,,---,0.09,VWS V14.00,2013-08-18 00:05:00,
2013-08-17 20:11:00,68.4,63.7,28.97,SE,135,0.0,0.0,85,0.00,,---,0.09,VWS V14.00,2013-08-18 00:11:00,
2013-08-17 20:17:00,68.4,63.7,28.97,West,270,0.0,0.0,85,0.00,,---,0.09,VWS V14.00,2013-08-18 00:17:00,
2013-08-17 20:23:00,68.4,63.7,28.97,West,270,0.0,0.0,85,0.00,,---,0.09,VWS V14.00,2013-08-18 00:23:00,
2013-08-17 20:29:00,68.4,63.7,28.97,West,270,0.0,0.0,85,0.00,,---,0.09,VWS V14.00,2013-08-18 00:29:00,
2013-08-17 20:35:00,68.2,63.5,28.97,East,90,0.0,0.0,85,0.00,,---,0.09,VWS V14.00,2013-08-18 00:35:00,
2013-08-17 20:41:00,68.2,63.5,28.97,WNW,292,0.0,0.0,85,0.03,,---,0.12,VWS V14.00,2013-08-18 00:41:00,
2013-08-17 20:47:00,68.0,63.7,28.97,WNW,292,0.0,0.0,86,0.03,,---,0.12,VWS V14.00,2013-08-18 00:47:00,
2013-08-17 20:53:00,68.2,63.8,28.97,East,90,0.0,0.0,86,0.03,,---,0.12,VWS V14.00,2013-08-18 00:53:00,
2013-08-17 20:59:00,68.0,63.7,28.97,ENE,68,0.0,0.0,86,0.03,,---,0.12,VWS V14.00,2013-08-18 00:59:00,
2013-08-17 21:05:00,68.0,63.7,28.97,NNE,22,0.0,0.0,86,0.03,,---,0.12,VWS V14.00,2013-08-18 01:05:00,
2013-08-17 21:11:00,68.0,63.7,28.97,NNW,338,0.0,0.0,86,0.03,,---,0.12,VWS V14.00,2013-08-18 01:11:00,
2013-08-17 21:17:00,68.0,63.7,28.97,NNW,338,0.0,0.0,86,0.03,,---,0.12,VWS V14.00,2013-08-18 01:17:00,
2013-08-17 21:23:00,68.0,63.7,28.97,NNW,338,0.0,0.0,86,0.03,,---,0.12,VWS V14.00,2013-08-18 01:23:00,
2013-08-17 21:29:00,68.0,63.7,28.97,NNW,338,0.0,0.0,86,0.03,,---,0.12,VWS V14.00,2013-08-18 01:29:00,
2013-08-17 21:35:00,68.0,63.7,29.00,NNW,338,0.0,0.0,86,0.03,,---,0.12,VWS V14.00,2013-08-18 01:35:00,
2013-08-17 21:41:00,68.0,63.7,29.00,NNW,338,0.0,0.0,86,0.03,,---,0.12,VWS V14.00,2013-08-18 01:41:00,
2013-08-17 21:47:00,68.0,63.7,28.97,NW,315,1.3,1.3,86,0.03,,---,0.12,VWS V14.00,2013-08-18 01:47:00,
2013-08-17 21:53:00,68.0,63.7,28.97,ENE,68,0.0,1.3,86,0.03,,---,0.12,VWS V14.00,2013-08-18 01:53:00,
2013-08-17 21:59:00,67.8,63.5,28.97,ENE,68,0.0,1.3,86,0.03,,---,0.12,VWS V14.00,2013-08-18 01:59:00,
2013-08-17 22:05:00,67.8,63.5,28.97,ENE,68,0.0,0.0,86,0.00,,---,0.12,VWS V14.00,2013-08-18 02:05:00,
2013-08-17 22:11:00,67.8,63.5,28.97,ENE,68,0.0,0.0,86,0.00,,---,0.12,VWS V14.00,2013-08-18 02:11:00,
2013-08-17 22:17:00,67.8,63.5,29.00,NNW,338,0.0,0.0,86,0.00,,---,0.12,VWS V14.00,2013-08-18 02:17:00,
2013-08-17 22:23:00,67.8,63.5,29.00,NNW,338,0.0,0.0,86,0.00,,---,0.12,VWS V14.00,2013-08-18 02:23:00,
2013-08-17 22:29:00,67.8,63.8,29.00,NNW,338,0.0,0.0,87,0.00,,---,0.12,VWS V14.00,2013-08-18 02:29:00,
2013-08-17 22:35:00,67.8,63.8,29.00,NNW,338,0.0,0.0,87,0.00,,---,0.12,VWS V14.00,2013-08-18 02:35:00,
2013-08-17 22:41:00,67.8,63.8,29.00,NNW,338,0.0,0.0,87,0.00,,---,0.12,VWS V14.00,2013-08-18 02:41:00,
2013-08-17 22:47:00,67.8,63.8,29.00,NNW,338,0.0,0.0,87,0.00,,---,0.12,VWS V14.00,2013-08-18 02:47:00,
2013-08-17 22:53:00,67.8,63.8,29.00,East,90,0.0,0.0,87,0.00,,---,0.12,VWS V14.00,2013-08-18 02:53:00,
2013-08-17 22:59:00,67.6,63.6,29.00,North,0,0.0,0.0,87,0.05,,---,0.17,VWS V14.00,2013-08-18 02:59:00,
2013-08-17 23:05:00,67.6,63.6,29.00,North,0,0.0,0.0,87,0.05,,---,0.17,VWS V14.00,2013-08-18 03:05:00,
2013-08-17 23:11:00,67.6,64.0,29.00,North,0,0.0,0.0,88,0.05,,---,0.17,VWS V14.00,2013-08-18 03:11:00,
2013-08-17 23:17:00,67.6,63.6,29.00,WNW,292,0.0,0.0,87,0.05,,---,0.17,VWS V14.00,2013-08-18 03:17:00,
2013-08-17 23:23:00,67.6,64.0,29.00,WNW,292,0.0,0.0,88,0.05,,---,0.17,VWS V14.00,2013-08-18 03:23:00,
2013-08-17 23:29:00,67.6,64.0,29.00,WNW,292,0.0,0.0,88,0.05,,---,0.17,VWS V14.00,2013-08-18 03:29:00,
2013-08-17 23:35:00,67.6,64.0,29.00,WNW,292,0.0,0.0,88,0.05,,---,0.17,VWS V14.00,2013-08-18 03:35:00,
2013-08-17 23:41:00,67.6,64.0,29.00,WNW,292,0.0,0.0,88,0.05,,---,0.17,VWS V14.00,2013-08-18 03:41:00,
2013-08-17 23:47:00,67.6,64.0,29.00,WNW,292,0.0,0.0,88,0.05,,---,0.17,VWS V14.00,2013-08-18 03:47:00,
2013-08-17 23:53:00,67.6,64.0,29.00,WNW,292,0.0,0.0,88,0.05,,---,0.17,VWS V14.00,2013-08-18 03:53:00,